Location: ??????
(38.3227°N, 23.7019°E)
Time: 16:10:01
(UTC+00:00)

Daily predictions for brighter satellites

Satellite Brightness Start Highest point End
(mag) Time Altitude Azimuth Time Altitude Azimuth Time Altitude Azimuth
Cosmos 1862 Rocket 3.8 18:04:52 10° S 18:09:17 79° W 18:13:42 10° N
Cosmos 1733 Rocket 3.1 18:04:55 10° N 18:09:18 86° W 18:13:37 10° S
CZ-2C R/B 4.0 18:05:24 10° NNE 18:09:43 47° E 18:14:05 10° S
STARLINK-1204 3.6 18:05:38 10° SW 18:09:45 78° SE 18:13:54 10° NE
IRS-1A Rocket 4.5 18:04:17 10° SSE 18:10:08 87° WSW 18:15:55 10° NNW
NOSS 2-3 (C) 3.8 18:06:43 10° S 18:10:42 46° ESE 18:15:06 10° NE
STARLINK-1158 4.2 18:08:18 10° NW 18:12:19 47° NE 18:16:19 10° ESE
SL-08 RB Rocket 3.7 18:08:28 10° SSE 18:13:04 73° ENE 18:17:39 10° N
STARLINK-1238 3.6 18:10:36 10° SW 18:14:44 86° SE 18:18:53 10° NE
Cosmos 1607 4.1 18:08:31 10° NNW 18:14:58 84° ENE 18:21:25 10° SSE
SPOT 3 Rocket 4.0 18:10:33 10° SE 18:15:26 46° ENE 18:20:21 10° N
FREGAT/IRIS 2.8 18:14:39 10° S 18:17:16 59° W 18:19:55 10° NNW
STARLINK-1162 4.1 18:13:15 10° NW 18:17:19 52° NE 18:21:21 10° ESE
Cosmos 2278 Rocket 3.2 18:13:11 10° SSE 18:17:40 24° ESE 18:22:08 10° NE
MONITOR-E 3.7 18:16:42 10° S 18:19:15 81° WSW 18:21:49 10° NNW
STARLINK-1201 3.7 18:15:35 10° SW 18:19:43 86° NW 18:23:52 10° NE
Cosmos 2034 Rocket 4.1 18:15:36 10° N 18:21:42 59° E 18:27:45 10° SSE
Cosmos 1624 Rocket 4.5 18:17:21 10° S 18:22:17 41° ESE 18:27:16 10° NNE
BREEZE M DEB (TANK) 2.2 18:18:54 10° WNW 18:22:18 61° SW 18:24:18 12° SE
Cosmos 1844 Rocket 3.5 18:17:17 10° SW 18:22:51 58° WNW 18:28:27 10° NNE
ERBS 3.2 18:21:42 10° S 18:24:29 26° SE 18:27:18 10° ENE
STARLINK-1206 3.8 18:20:33 10° SW 18:24:41 78° NW 18:28:50 10° NE
Cosmos 614 Rocket 4.4 18:21:08 10° N 18:26:01 45° ENE 18:30:40 11° SE
H-2A R/B 3.0 18:21:57 10° S 18:26:44 47° W 18:31:39 10° NNW
Cosmos 1666 3.7 18:23:14 10° NNW 18:26:58 49° W 18:30:39 10° SSW
Cosmos 1975 4.2 18:23:52 10° NNE 18:27:08 23° ENE 18:29:54 12° SE
STARLINK-1159 3.8 18:23:09 10° NW 18:27:16 63° NE 18:30:59 12° ESE
STARLINK-1205 3.9 18:25:33 10° SW 18:29:40 71° NW 18:33:48 10° NE
Okean 1 3.4 18:26:57 10° S 18:30:55 59° E 18:34:54 10° NNE
Cosmos 1816 Rocket 4.5 18:25:49 10° S 18:31:52 65° E 18:37:56 10° NNE
Cosmos 44 Rocket 3.3 18:27:19 10° NNW 18:32:15 87° ENE 18:37:00 11° SSE
STARLINK-1171 3.7 18:28:09 10° NW 18:32:17 69° NE 18:35:48 14° ESE
STARLINK-1218 4.1 18:30:32 10° WSW 18:34:38 64° NW 18:38:45 10° NE
Resurs 01 Rocket 2.2 18:31:01 11° SE 18:34:59 42° ENE 18:39:11 10° N
Cosmos 1371 Rocket 4.0 18:31:34 10° S 18:36:46 65° ESE 18:41:57 10° NNE
STARLINK-1155 3.7 18:33:06 10° NW 18:37:15 76° NE 18:40:34 15° SE
Meteor 1-4 Rocket 3.3 18:36:51 12° SSE 18:39:32 31° E 18:42:37 10° NNE
STARLINK-1254 4.3 18:35:33 10° WSW 18:39:37 58° NW 18:43:43 10° NE
Meteor 1-18 Rocket 4.2 18:35:17 10° S 18:40:46 66° E 18:46:21 10° NNE
Cosmos 1515 4.1 18:37:10 10° SSE 18:40:47 43° E 18:44:25 10° NNE
Cosmos 1782 Rocket 4.1 18:36:42 10° N 18:40:56 41° E 18:44:19 15° SE
STARLINK-1166 3.6 18:38:04 10° NW 18:42:13 84° NE 18:45:20 17° SE
Cosmos 1464 Rocket 4.5 18:36:58 10° NNW 18:43:16 66° W 18:49:34 10° S
Cosmos 1703 Rocket 3.5 18:39:09 10° S 18:43:27 83° E 18:47:48 10° N
STARLINK-1231 4.5 18:40:34 10° WSW 18:44:37 53° NW 18:48:41 10° NE
STARLINK-1246 4.3 18:43:22 10° SSW 18:47:02 32° SE 18:50:44 10° ENE
STARLINK-1165 3.6 18:43:03 10° NW 18:47:12 88° SW 18:50:07 19° SE
ISS -0.6 18:51:22 10° N 18:51:40 10° N 18:51:57 10° NNE
STARLINK-1224 4.1 18:48:14 10° SSW 18:52:01 35° SE 18:55:48 10° ENE
STARLINK-1169 3.6 18:48:01 10° NW 18:52:10 80° SW 18:54:54 21° SE
USA 186 4.2 18:51:12 10° WSW 18:52:12 12° W 18:53:14 10° WNW
Spot 2 Rocket 4.4 18:50:21 17° ESE 18:53:34 34° ENE 18:58:04 10° N
Okean 2 Rocket 4.5 18:51:28 10° NNE 18:55:00 23° ENE 18:56:47 18° ESE
STARLINK-1225 4.0 18:53:05 10° SSW 18:56:56 39° SE 19:00:49 10° ENE
STARLINK-1178 3.7 18:53:01 10° NW 18:57:08 72° SW 18:59:41 22° SE
Lacrosse 5 4.0 18:53:46 10° NNW 18:57:14 18° NNE 19:00:40 10° ENE
Meteor 2-4 Rocket 3.9 18:53:23 12° SSE 18:58:05 46° E 19:03:10 10° NNE
COSMOS 2406 3.7 18:52:41 10° N 18:58:15 46° ENE 19:01:58 20° SE
SEDSat Delta rocket 4.5 18:53:12 10° WSW 18:59:35 44° S 19:03:47 20° SE
Cosmos 1908 Rocket 4.0 18:55:13 10° NNW 18:59:38 63° W 19:04:01 10° S
STARLINK-1230 3.9 18:57:59 10° SSW 19:01:55 44° SE 19:05:51 10° ENE
Cosmos 1634 Rocket 4.2 18:55:46 10° N 19:01:57 54° E 19:06:28 19° SSE
STARLINK-1120 3.8 18:58:00 10° NW 19:02:06 65° SW 19:04:28 24° SSE
Cosmos 371 Rocket 4.2 19:00:08 20° SE 19:02:23 29° E 19:06:34 10° NE
ASTEX 1 4.5 19:00:06 10° SSW 19:04:43 43° W 19:09:24 10° NNW
Cosmos 2056 Rocket 3.5 19:00:05 10° SSW 19:05:11 80° WNW 19:10:19 10° NNE
STARLINK-1243 3.7 19:02:52 10° SSW 19:06:51 49° SE 19:10:51 10° ENE
STARLINK-1131 3.9 19:03:00 10° NW 19:07:04 58° SW 19:09:15 25° SSE
Cosmos 1544 3.0 19:04:20 10° N 19:07:57 66° E 19:09:43 28° SSE
Iridium 51 4.2 19:04:54 14° S 19:08:26 83° E 19:12:17 10° N
CREW DRAGON DEMO-1 DEB 2.8 19:05:54 10° NW 19:09:00 75° NE 19:10:03 37° ESE
Hubble Space Telescope 2.3 19:06:38 10° SW 19:09:39 20° S 19:10:07 19° S
SAR-Lupe-2 3.8 19:07:10 10° NNE 19:10:40 46° E 19:12:03 30° SSE
STARLINK-1236 3.6 19:07:48 10° SSW 19:11:50 54° SE 19:15:53 10° ENE
STARLINK-1190 4.0 19:07:59 10° WNW 19:12:01 52° SW 19:14:01 27° SSE
Resurs 1-3 4.4 19:07:51 10° S 19:12:05 48° W 19:16:20 10° NNW
Cosmos 909 Rocket 4.3 19:04:54 10° NNW 19:12:36 83° ENE 19:16:57 23° SSE
STARLINK-1087 3.2 19:13:05 10° WNW 19:14:32 31° WSW 19:14:32 31° WSW
TELKOM 3 3.3 19:13:41 10° WNW 19:15:36 46° SW 19:15:36 46° SW
SL-4 R/B 3.8 19:15:41 10° NNE 19:16:41 11° NE 19:17:16 11° ENE
STARLINK-1129 4.2 19:13:01 10° WNW 19:17:00 47° SW 19:18:49 27° S
Cosmos 724 4.3 19:12:32 10° NNW 19:18:27 86° ENE 19:22:03 26° SSE
STARLINK-1269 3.5 19:17:38 10° SW 19:21:45 68° SE 19:25:52 10° NE
STARLINK-1134 4.4 19:18:02 10° WNW 19:21:57 42° SW 19:23:36 28° S
IGS 5A 3.8 19:21:24 33° SE 19:22:53 50° ENE 19:26:55 10° N
Cosmos 1356 4.2 19:19:52 10° NNW 19:23:12 48° W 19:25:05 22° SSW
STARLINK-1095 4.4 19:20:20 10° NW 19:24:17 42° NE 19:26:08 26° E
STARLINK-1200 3.4 19:22:37 10° SW 19:26:44 75° SE 19:30:52 10° NE
Okean 3 3.4 19:25:46 24° S 19:28:21 84° E 19:32:40 10° N
STARLINK-1077 4.3 19:25:17 10° NW 19:29:17 46° NE 19:30:55 29° E
STARLINK-1192 3.5 19:27:34 10° SW 19:31:43 83° SE 19:35:52 10° NE
Cosmos 2082 Rocket 3.2 19:26:39 10° N 19:31:50 34° ENE 19:34:12 24° ESE
SPOT 5 3.9 19:30:47 27° ESE 19:32:34 35° ENE 19:37:19 10° N
STARLINK-1075 4.2 19:30:14 10° NW 19:34:16 50° NE 19:35:42 34° E
Cosmos 1452 Rocket 3.4 19:32:35 22° S 19:35:57 66° ESE 19:41:13 10° NNE
Cosmos 1833 Rocket 2.9 19:30:53 10° NNW 19:36:27 59° ENE 19:38:45 34° SE
STARLINK-1244 3.5 19:32:32 10° SW 19:36:40 89° WNW 19:40:50 10° NE
Aureole 1 Rocket 3.7 19:32:23 10° NNW 19:36:49 63° WSW 19:40:00 25° S
Cosmos 1461 4.4 19:39:32 22° ENE 19:39:32 22° ENE 19:41:39 10° NE
STARLINK-1093 4.0 19:35:12 10° NW 19:39:16 55° NE 19:40:29 39° E
Intercosmos 24 3.7 19:36:11 10° N 19:39:43 58° E 19:40:08 54° ESE
GPS 2-04 Rocket1 4.0 19:36:54 10° SW 19:38:38 23° SSW 19:38:38 23° SSW
Cosmos 407 Rocket 4.4 19:35:39 10° NNW 19:40:44 46° WSW 19:44:02 21° SSW
Cosmos 1420 Rocket 4.1 19:35:33 10° SSW 19:40:45 75° WNW 19:45:58 10° NNE
STARLINK-1138 3.6 19:37:30 10° SW 19:41:38 81° NW 19:45:47 10° NE
Landsat 7 3.7 19:39:46 37° SSE 19:41:40 84° ENE 19:46:26 10° N
STARLINK-1074 3.9 19:40:09 10° NW 19:44:14 60° NE 19:45:15 45° E
Cosmos 1943 Rocket 4.1 19:47:27 14° E 19:47:27 14° E 19:49:01 10° ENE
Cosmos 304 Rocket 4.3 19:46:22 37° ESE 19:46:23 37° ESE 19:50:46 10° NE
STARLINK-1143 3.7 19:42:29 10° SW 19:46:37 74° NW 19:50:45 10° NE
GENESIS II 4.2 19:43:27 10° NNW 19:47:28 72° ENE 19:48:01 60° ESE
Cosmos 1300 Rocket 3.5 19:43:46 10° N 19:48:14 79° E 19:49:20 50° SSE
STARLINK-1203 3.9 19:45:54 10° WSW 19:50:05 68° NW 19:54:16 10° NE
STARLINK-1241 3.9 19:47:30 10° WSW 19:51:36 67° NW 19:55:44 10° NE
STARLINK-1088 3.6 19:50:04 10° NW 19:54:13 73° NE 19:54:50 60° E
Cosmos 332 Rocket 3.7 19:54:02 40° S 19:55:48 77° ESE 20:00:42 10° NNE
STARLINK-1239 4.1 19:52:30 10° WSW 19:56:35 60° NW 20:00:42 10° NE
STARLINK-1115 3.5 19:55:02 10° NW 19:59:11 81° NE 19:59:36 70° ESE
Cosmos 1674 Rocket 3.4 19:59:48 64° SSE 20:00:21 74° E 20:04:43 10° N
ATLAS 3B CENTAUR R/B 3.7 19:51:35 10° SW 20:00:53 29° S 20:00:55 29° S
Cosmos 2278 Rocket 3.3 19:56:03 10° SW 20:01:25 43° WNW 20:06:49 10° N
STARLINK-1240 4.3 19:57:31 10° WSW 20:01:35 55° NW 20:05:40 10° NE
SPOT 1/Viking Rocket 3.6 20:00:05 41° S 20:01:54 75° WSW 20:07:05 10° NNW
USA 245 4.0 20:02:38 36° WSW 20:03:06 39° WSW 20:06:07 10° NNW
STARLINK-1076 3.4 20:00:01 10° NW 20:04:10 89° NE 20:04:23 80° ESE
Cosmos 1378 Rocket 3.5 20:06:23 64° ESE 20:06:32 64° E 20:10:54 10° NNE
STARLINK-1216 4.5 20:02:32 10° WSW 20:06:34 50° NW 20:10:36 10° NE
STARLINK-1092 3.5 20:04:57 10° NW 20:09:07 84° SW 20:09:09 83° SSW
EXPRESS MD2 3.7 20:08:19 10° WSW 20:11:24 65° NNW 20:17:19 10° NE
Resurs 01 Rocket 4.1 20:08:50 10° SW 20:11:38 16° W 20:14:25 10° NW
Cosmos 1741 Rocket 4.1 20:08:17 10° N 20:13:28 59° ENE 20:14:15 53° ESE
STARLINK-1080 3.6 20:10:01 10° NW 20:13:58 73° WSW 20:13:58 73° WSW
Nadezhda 4 Rocket 3.8 20:16:05 47° S 20:17:59 78° E 20:24:07 10° N
Cosmos 1437 Rocket 3.1 20:17:49 54° W 20:18:01 54° W 20:21:45 10° N
STARLINK-1090 3.8 20:14:57 10° NW 20:18:44 64° WSW 20:18:44 64° WSW
ERS-1 Rocket 3.1 20:20:14 52° SSW 20:21:18 67° WSW 20:26:19 10° NNW
SeaSat 1 3.0 20:17:45 10° NE 20:21:42 42° E 20:21:42 42° E
BREEZE-M DEB (TANK) 3.7 20:24:19 51° E 20:24:19 51° E 20:31:11 10° ENE
STARLINK-1089 4.0 20:19:57 10° NW 20:23:30 54° W 20:23:30 54° W
Cosmos 1850 Rocket 3.9 20:20:57 10° NNW 20:26:19 83° ENE 20:27:01 68° SE
Terra 1.6 20:26:03 77° SE 20:26:22 84° ENE 20:31:09 10° NNW
STARLINK-1107 4.3 20:24:58 10° WNW 20:28:17 47° W 20:28:17 47° W
Cosmos 1110 Rocket 3.8 20:28:46 72° SSE 20:29:10 78° ESE 20:34:22 10° NNE
ISS -1.9 20:26:20 10° NNW 20:28:52 28° NNE 20:28:52 28° NNE
Lacrosse 5 1.8 20:35:52 10° NW 20:40:56 78° NE 20:41:04 77° ENE
Cosmos 1766 4.4 20:41:28 10° N 20:44:15 40° NNE 20:44:15 40° NNE
Okean 1 Rocket 3.3 20:41:16 10° NNW 20:45:25 66° WNW 20:45:25 66° WNW
SL-4 R/B 4.1 20:47:13 10° NW 20:48:05 16° NW 20:48:05 16° NW
Cosmos 1331 Rocket 4.0 20:50:34 69° WSW 20:50:59 74° WNW 20:56:10 10° NNE
Cosmos 1455 Rocket 4.3 20:52:29 10° N 20:55:30 33° NE 20:55:30 33° NE
Cosmos 1302 Rocket 4.3 20:57:37 56° ENE 20:57:37 56° ENE 21:02:07 10° NNE
Cosmos 1092 Rocket 3.9 20:57:05 64° SSW 20:58:04 82° W 21:04:15 10° N
Cosmos 2297 4.4 20:57:27 32° WSW 20:59:45 51° WNW 21:05:19 10° NNE
Meteor 2-13 Rocket 4.4 21:01:41 66° ESE 21:01:57 67° E 21:08:04 10° NNE
Meteor 1-22 Rocket 4.1 20:59:38 10° N 21:05:36 83° E 21:05:47 81° ESE
Cosmos 1627 Rocket 4.4 21:07:32 71° SSW 21:08:17 88° W 21:14:41 10° N
SPOT 5 4.5 21:10:01 25° WSW 21:10:38 26° W 21:14:59 10° NW
Cosmos 2082 Rocket 3.3 21:10:48 10° NW 21:15:49 32° WSW 21:16:03 32° WSW
USA 215 3.9 21:16:01 30° E 21:18:56 49° NE 21:25:11 10° NW
ALOS 2 4.1 21:23:37 30° NE 21:23:37 30° NE 21:26:35 10° N
Thor Agena Rocket 3.8 21:19:21 10° N 21:24:36 65° WNW 21:24:39 65° WNW
Cosmos 2369 Rocket 2.2 21:26:15 74° NE 21:26:15 74° NE 21:31:26 10° NNE
Cosmos 1943 Rocket 2.3 21:28:55 65° WNW 21:29:04 65° WNW 21:34:38 10° NNE
S3M 4.3 21:28:25 10° N 21:34:25 51° E 21:34:29 51° E
Cosmos 1655 Rocket 4.1 21:35:31 61° E 21:35:31 61° E 21:41:30 10° NNE
NOSS 3-4 (A) 4.0 21:42:26 44° ENE 21:42:26 44° ENE 21:47:04 10° NE
NOSS 3-4 (C) 4.0 21:42:33 44° ENE 21:42:33 44° ENE 21:47:10 10° NE
Meteor 1-21 4.5 21:46:05 60° WNW 21:46:05 60° WNW 21:51:35 10° N
ATLAS CENTAUR R/B 4.1 21:49:15 13° ENE 21:49:15 13° ENE 21:49:45 10° NE
CENTAUR R/B 3.8 21:40:43 10° NNW 21:48:37 50° NE 21:52:40 31° ESE
Cosmos 1553 Rocket 3.9 21:44:39 10° N 21:50:58 84° W 21:50:58 84° W
SeaSat 1 4.4 21:55:53 10° N 21:59:43 23° NW 22:01:28 19° W
Cosmos 2263 4.4 22:04:13 65° NW 22:04:13 65° NW 22:09:28 10° NNE
ATLAS 2AS CENTAUR R/B 2.9 22:07:59 67° SSW 22:09:17 90° ESE 22:17:20 10° NNE
Cosmos 1656 Rocket 3.8 22:10:12 69° NNE 22:10:12 69° NNE 22:15:06 10° NNE
Helios 1A 4.5 22:15:41 35° N 22:15:41 35° N 22:18:12 10° N
Cosmos 1503 Rocket 4.5 22:09:21 10° NNW 22:13:53 59° NNE 22:13:53 59° NNE
In-Cosmos 22 4.4 22:18:15 63° N 22:18:15 63° N 22:22:39 10° N
Cosmos 968 Rocket 4.1 22:13:49 10° NNW 22:17:45 53° NNW 22:17:45 53° NNW
Cosmos 2266 Rocket 3.9 22:19:17 80° NW 22:19:17 80° NW 22:25:10 10° N
NOSS 3-2 (A) 4.0 22:12:42 10° NW 22:20:29 73° WSW 22:21:24 67° SSW
Cosmos 1833 4.4 22:17:11 10° NNW 22:22:19 67° NNE 22:22:19 67° NNE
Meteor 2-19 Rocket 4.4 22:24:06 74° WNW 22:24:06 74° WNW 22:30:06 10° N
Helios 1B rocket 4.4 22:24:09 10° NNE 22:26:09 26° NE 22:26:09 26° NE
USA 238 DEB 3.9 22:21:42 10° NW 22:28:51 64° WSW 22:28:51 64° WSW
USA 238 3.8 22:21:47 10° NW 22:28:59 64° WSW 22:28:59 64° WSW
Cosmos 1354 Rocket 4.4 22:25:27 10° NNW 22:29:50 61° N 22:29:50 61° N
Cosmos 1867 4.2 22:27:49 10° NNW 22:33:06 48° NE 22:33:16 47° ENE
COSMOS 2455 2.8 22:35:47 78° NNE 22:35:47 78° NNE 22:41:24 10° NNE
Cosmos 1953 4.4 22:32:30 10° NNW 22:34:15 24° NNW 22:34:15 24° NNW
Meteor 1-16 Rocket 4.4 22:33:38 10° NNW 22:38:18 62° NW 22:38:18 62° NW
Cosmos 883 Rocket 4.4 22:35:30 10° N 22:41:20 74° WNW 22:41:20 74° WNW
EO 1 Delta rocket 4.3 22:40:33 10° N 22:45:47 68° NNW 22:45:47 68° NNW
Cosmos 2098 Rocket 4.1 22:47:17 75° WSW 22:47:38 77° W 22:55:00 10° N
SL-4 R/B 3.5 22:59:59 41° NNW 22:59:59 41° NNW 23:04:28 10° NE
USA 215 3.8 23:03:20 42° W 23:03:20 42° W 23:08:12 10° NW
Exosat Rocket 4.3 22:52:55 10° NNW 23:02:04 74° WSW 23:02:42 70° SW
Cosmos 2315 Rocket 4.1 22:56:58 10° NNW 23:02:52 63° W 23:02:52 63° W
Cosmos 2228 4.5 23:01:00 10° NNW 23:03:26 33° NNW 23:03:26 33° NNW
CZ-2D R/B 3.8 23:01:58 10° NE 23:05:56 22° E 23:05:58 22° E
Cosmos 921 Rocket 4.3 23:10:18 36° NE 23:10:18 36° NE 23:13:00 10° NNE
Resurs 1-4 Rocket 3.7 23:05:02 10° NE 23:09:17 24° E 23:09:22 24° E
Cosmos 2369 Rocket 4.5 23:07:59 12° WNW 23:10:28 15° NW 23:13:37 10° NNW
SJ 16-02 4.2 23:08:54 10° NE 23:10:32 12° ENE 23:12:09 10° E
Nadezhda 2 Rocket 4.4 23:12:38 69° W 23:12:38 69° W 23:18:44 10° N
Cosmos 2058 Rocket 4.0 23:11:12 10° N 23:14:21 46° N 23:14:21 46° N
Meteor 2-16 Rocket 4.4 23:18:22 74° ESE 23:18:39 75° E 23:24:46 10° N
GEOS 3 Rocket 4.4 23:17:27 37° E 23:18:59 49° NE 23:24:03 10° NNW
Meteor 1-24 Rocket 3.7 23:20:52 69° NNW 23:20:52 69° NNW 23:25:45 10° N
SL-19 R/B 4.2 23:18:27 10° NNE 23:23:55 82° E 23:23:55 82° E
CZ-4C R/B 3.8 23:25:13 20° E 23:25:13 20° E 23:28:27 10° ENE
ATLAS CENTAUR R/B 3.1 23:25:24 27° NW 23:25:24 27° NW 23:28:33 10° N
NOSS 3-2 (C) 4.5 23:19:12 10° NW 23:26:35 45° WSW 23:26:35 45° WSW
ATLAS 3B R/B 2.6 23:30:33 10° NW 23:37:25 82° WSW 23:38:47 61° SSE
RESURS DK-1 3.8 23:39:42 34° NNW 23:39:42 34° NNW 23:42:37 10° N
CENTAUR R/B 3.5 23:31:37 10° NW 23:39:26 44° WSW 23:39:48 44° WSW
CZ-4C R/B 4.2 23:46:20 49° ENE 23:46:20 49° ENE 23:50:17 10° N
Nadezhda 1 Rocket 3.9 23:42:41 10° N 23:48:54 85° E 23:50:00 63° SSE
Cosmos 1626 4.3 23:50:51 20° NW 23:50:51 20° NW 23:52:28 10° NNW
Cosmos 1812 Rocket 4.2 23:46:50 10° N 23:51:10 51° ENE 23:51:10 51° ENE
Meteor 1-21 Rocket 4.4 23:52:29 54° SE 23:53:16 60° E 23:58:49 10° NNE
Cosmos 1356 Rocket 4.1 23:50:19 10° N 23:53:32 52° N 23:53:32 52° N
BREEZE-M DEB (TANK) 4.4 23:56:49 14° NNW 23:56:49 14° NNW 23:57:47 10° NNE
